User: anonymous   Login
Location: Unspecified
(0.0000°N, 0.0000°E)
Time: 13:39:47
(UTC+00:00)
Language:

FIREBIRD 4 - Orbit

View from above orbital plane
View from above orbital plane
View from above satellite
View from above satellite

Ground track
Ground track

The orbit data is extracted from the following two-line orbital elements,

1 40378U 15003C   18174.17648866  .00001140  00000-0  50648-4 0  9991
2 40378  99.0869  77.1708 0130718 210.2696 149.0937 15.17265605187233
Epoch (UTC): 23 June 2018 04:14:08
Eccentricity: 0.0130718
inclination: 99.0869°
perigee height: 424 km
apogee height: 604 km
right ascension of ascending node: 77.1708°
argument of perigee: 210.2696°
revolutions per day: 15.17265605
mean anomaly at epoch: 149.0937°
orbit number at epoch: 18723

The dashed part of the orbit path shows where the satellite is in the earth's shadow,  

DLR